Regional Weather Roundup
Issued by NWS Sterling, VA

Home | Current Version | Previous Version | Text Only | Print | Product List | Glossary Off
Versions: 1 2 3 4 5 6 7 8 9 10 11 12 13 14 15 16 17 18 19 20 21 22 23 24 25 26 27 28 29 30 31 32 33 34 35 36 37 38 39 40 41 42 43 44 45 46 47 48 49 50

000
ASUS41 KLWX 291410
RWRLWX

REGIONAL WEATHER ROUNDUP
NATIONAL WEATHER SERVICE BALTIMORE MD/WASHINGTON DC
1000 AM EDT WED MAR 29 2017

Note: "FAIR" indicates few or no clouds below 12,000 feet
with no significant weather and/or obstructions to visibility.
 TC=TEMPERATURE CELSIUS

 * =Non NWS site. Station does not report precipitation (e.g. rain,
    snow, etc.), thunder, or fog.

DCZ001-MDZ009-015-VAZ040>042-051-053>054-291500-
WASHINGTON METRO

CITY           SKY/WX    TMP DP  RH WIND       PRES   REMARKS
WASHINGTON NAT PTSUNNY   56  43  61 N14       30.13
DULLES         PTSUNNY   53  44  71 NE14      30.12
ANDREWS AFB    MOSUNNY   55  41  58 N17       30.11
FT BELVOIR     PTSUNNY   57  45  62 N9        30.11
QUANTICO       PTSUNNY   59  49  69 NE12      30.12R
COLLEGE PARK*  SUNNY     54  39  57 NW9       30.12S
LEESBURG*      PTSUNNY   55  46  71 NE10      30.14R
MANASSAS*      CLOUDY   N/A N/A N/A N15       30.12

$$

MDZ006>007-011-014-291500-
BALTIMORE METRO

CITY           SKY/WX    TMP DP  RH WIND       PRES   REMARKS
BWI AIRPORT    MOSUNNY   53  38  56 N6G16     30.12
MD SCIENCE CTR   N/A     53  34  48 MISG      30.13
MARTIN STATE   MOSUNNY   54  39  58 NW6G16    30.14
ANNAPOLIS      SUNNY     52  39  61 N15       30.12
FORT MEADE*    SUNNY     54  36  50 N9        30.16R

$$

MDZ012-015-019>023-291500-
MARYLAND EASTERN SHORE

CITY           SKY/WX    TMP DP  RH WIND       PRES   REMARKS
OCEAN CITY     CLOUDY    52  42  69 N16       30.08
SALISBURY      CLOUDY    54  44  69 N14       30.07
BAY BRIDGE AP* SUNNY     50  41  71 N10G17    30.12S
CAMBRIDGE*     PTSUNNY   52  41  66 N9G17     30.10R
EASTON*        MOSUNNY   54  39  58 N14G21    30.13

$$

MDZ017>025-291500-
SOUTHERN MARYLAND

CITY           SKY/WX    TMP DP  RH WIND       PRES   REMARKS
PATUXENT RIVER MOSUNNY   53  44  71 N20G29    30.10
ST INIGOES     MOSUNNY   56  43  61 NE12G18   30.09
LEONARDTOWN*   MOSUNNY   52  41  66 N7G20     30.12R

$$

MDZ003>005-291500-
NORTH CENTRAL MARYLAND

CITY           SKY/WX    TMP DP  RH WIND       PRES   REMARKS
FREDERICK*     PTSUNNY   54  46  76 NE7       30.18
HAGERSTOWN APT MOSUNNY   53  39  59 N14       30.15
WESTMINSTER*   SUNNY     48  39  71 N12G18    30.14R

$$

MDZ501>502-291500-
WESTERN MARYLAND

CITY           SKY/WX    TMP DP  RH WIND       PRES   REMARKS
OAKLAND*       CLOUDY    37  37 100 NE3       30.15
CUMBERLAND*    CLOUDY    52  37  58 N8        30.22R

$$

VAZ025>031-291500-
SHENANDOAH VALLEY

CITY           SKY/WX    TMP DP  RH WIND       PRES   REMARKS
WINCHESTER*    CLOUDY    52  37  58 N6        30.14R
FRONT ROYAL*   NOT AVBL
LURAY*         NOT AVBL
NEW MARKET*    NOT AVBL
STAUNTON*      PTSUNNY   54  45  71 NE12      30.14R
WAYNESBORO*    NOT AVBL

$$

WVZ021-048>050-054>055-291500-
EASTERN WEST VIRGINIA PANHANDLE

CITY           SKY/WX    TMP DP  RH WIND       PRES   REMARKS
MARTINSBURG    CLOUDY    52  39  61 N15       30.14R
PETERSBURG*    PTSUNNY   54  42  63 N9G16     30.15S

$$

VAZ036>039-050-291500-
CENTRAL FOOTHILLS

CITY           SKY/WX    TMP DP  RH WIND       PRES   REMARKS
CHARLOTTESVILL MOSUNNY   61  48  62 N6        30.10
CULPEPER*      CLOUDY    57  47  69 N7        30.13R
ORANGE*        SUNNY     59  45  58 N9G16     30.13R
GORDONSVILLE*  NOT AVBL
WARRENTON*     PTSUNNY   60  43  54 N10       30.11R

$$

VAZ055>057-291500-
NORTH AND CENTRAL PIEDMONT

CITY           SKY/WX    TMP DP  RH WIND       PRES   REMARKS
FREDERICKSBRG* CLOUDY    58  50  74 N9        30.10R
STAFFORD*      CLOUDY    56  50  78 N10G16    30.15R

$$

NCZ024-NYZ072-PAZ021-071-VAZ022-071-291500-
OTHER REGIONAL OBSERVATIONS

CITY           SKY/WX    TMP DP  RH WIND       PRES   REMARKS
NEW YORK CITY  CLOUDY    45  38  76 MISG      30.09
PHILADELPHIA   MOSUNNY   49  36  61 N16       30.11
PITTSBURGH     PTSUNNY   46  37  71 NE7       30.21
ROANOKE        MOSUNNY   63  45  51 E8        30.13
RICHMOND       PTSUNNY   64  53  67 N13       30.08
RALEIGH        MOSUNNY   65  54  67 E13       30.07

$$

ANZ530>537-291500-
MARINE OBSERVATIONS

STATION/POSITION TIME  TEMP    WIND        PRES
                       AIR SEA DIR/SP/G
                 (UTC) (F)     (DEG/KT/KT) (MB)
THOMAS PT LIGHT  NOT AVBL

$$




USA.gov is the U.S. government's official web portal to all federal, state and local government web resources and services.